Overview Statistics Trail Chart Weather Telemetry Raw packets
 

This is the latest recevied weather packets stored in our database for station/object KB4MOX. If no packets are shown the sender has not sent any weather packets the latest 10 day(s).

<< 104 105 106 107 108 109 110 >>
Time Temp. Humidity Pressure Rain* Wind** Luminosity Snow
1787834217 23.89° C 96% 1016.2 hPa 0 mm - 63 W/m² -
1787833913 23.89° C 96% 1016.2 hPa 0 mm - 68 W/m² -
1787833608 23.33° C 96% 1016.1 hPa 0 mm - 66 W/m² -
1787833304 23.33° C 96% 1016.2 hPa 0 mm - 67 W/m² -
1787832998 23.33° C 96% 1016.1 hPa 0 mm - 54 W/m² -
1787832695 23.33° C 96% 1016 hPa 0 mm - 57 W/m² -
1787832394 23.33° C 97% 1016.1 hPa 0 mm - 50 W/m² -
1787832088 22.78° C 97% 1016 hPa 0 mm - 45 W/m² -
1787831786 22.78° C 97% 1016 hPa 0 mm - 35 W/m² -
1787831486 22.78° C 97% 1015.8 hPa 0 mm - 28 W/m² -
1787831184 22.78° C 97% 1015.8 hPa 0 mm - 25 W/m² -
1787830882 22.78° C 97% 1015.7 hPa 0 mm - 20 W/m² -
1787830581 22.78° C 97% 1015.8 hPa 0 mm - 14 W/m² -
1787830275 22.78° C 97% 1015.7 hPa 0 mm - 11 W/m² -
1787829975 22.78° C 97% 1015.7 hPa 0 mm - 8 W/m² -
1787829674 22.78° C 96% 1015.8 hPa 0 mm - 6 W/m² -
1787829370 22.78° C 96% 1015.6 hPa 0 mm - 4 W/m² -
1787829066 22.78° C 96% 1015.6 hPa 0 mm - 3 W/m² -
1787828761 22.78° C 96% 1015.8 hPa 0 mm - 2 W/m² -
1787828457 22.78° C 96% 1015.5 hPa 0 mm - 1 W/m² -
1787828156 22.78° C 96% 1015.5 hPa 0 mm - 0 W/m² -
1787827855 22.78° C 96% 1015.6 hPa 0 mm - 0 W/m² -
1787827551 22.78° C 96% 1015.4 hPa 0 mm - 0 W/m² -
1787827250 22.78° C 96% 1015.4 hPa 0 mm - 0 W/m² -
1787826949 22.78° C 96% 1015.5 hPa 0 mm - 0 W/m² -

* Rain latest hour (hover to see other rain measurements)
** Current wind speed in m/s (hover to see current wind gust speed)